Location: South Range
(44.4886°N, 65.7879°W)
Time: 04:42:25
(UTC-04:00)

Iridium 56 - Visible Passes

Search period start: 20 December 2014 00:00
Search period end: 30 December 2014 00:00
Orbit: 776 x 779 km, 86.4° (Epoch: 19 December)

Date Brightness Start Highest point End Pass type
(mag) Time Alt. Az. Time Alt. Az. Time Alt. Az.
20 Dec 6.2 06:29:15 10° N 06:34:24 58° E 06:39:31 10° SSE visible
20 Dec 7.1 17:50:04 10° ESE 17:52:33 15° E 17:52:33 15° E visible
20 Dec 5.6 19:27:42 10° S 19:32:53 72° W 19:33:07 70° WNW visible
21 Dec 7.3 05:56:04 10° NNE 06:00:45 33° E 06:05:24 10° SE visible
21 Dec 5.4 18:54:16 10° S 18:59:24 65° E 19:01:04 42° NNE visible
21 Dec 8.1 20:37:22 10° WSW 20:40:38 17° WNW 20:41:38 16° WNW visible
22 Dec 8.1 05:23:18 10° NNE 05:26:58 19° ENE 05:30:36 10° ESE visible
22 Dec 5.6 07:02:59 10° NNW 07:08:05 56° W 07:13:09 10° SSW visible
22 Dec 6.0 18:21:21 10° SSE 18:26:03 36° E 18:29:03 20° NNE visible
22 Dec 7.3 20:02:21 10° SW 20:06:49 29° WNW 20:09:38 18° NNW visible
23 Dec 8.6 04:52:02 10° ENE 04:53:02 11° ENE 04:54:02 10° E visible
23 Dec 5.6 06:29:23 10° N 06:34:38 82° E 06:39:50 10° S visible
23 Dec 6.7 17:49:03 10° SE 17:52:49 21° E 17:56:36 10° NNE visible
23 Dec 6.3 19:28:06 10° SSW 19:33:08 50° W 19:37:40 13° N visible
24 Dec 6.6 05:56:03 10° N 06:01:04 46° E 06:06:03 10° SSE visible
24 Dec 7.3 17:18:04 10° E 17:19:42 12° ENE 17:21:21 10° NE visible
24 Dec 5.4 18:54:22 10° S 18:59:35 89° W 19:04:50 10° N visible
24 Dec 8.5 20:39:21 10° W 20:41:06 12° WNW 20:42:52 10° NW visible
25 Dec 7.6 05:23:00 10° NNE 05:27:22 26° ENE 05:31:42 10° SE visible
25 Dec 6.0 07:03:22 10° NNW 07:08:12 39° W 07:12:59 10° SSW visible
25 Dec 5.6 18:21:08 10° SSE 18:26:09 51° E 18:31:12 10° NNE visible
25 Dec 7.9 20:03:21 10° WSW 20:07:12 21° WNW 20:11:04 10° NNW visible
26 Dec 8.3 04:50:31 10° NE 04:53:31 15° ENE 04:56:30 10° ESE visible
26 Dec 5.4 06:29:37 10° N 06:34:49 71° W 06:39:59 10° S visible
26 Dec 6.3 17:48:26 10° SE 17:52:51 29° E 17:57:16 10° NNE visible
26 Dec 7.0 19:28:41 10° SW 19:33:26 35° W 19:38:13 10° NNW visible
27 Dec 5.9 05:56:07 10° N 06:01:19 66° E 06:06:29 10° SSE visible
27 Dec 7.0 17:16:28 10° ESE 17:19:40 17° ENE 17:22:51 10° NE visible
27 Dec 5.9 18:54:39 10° SSW 18:59:48 63° W 19:04:59 10° N visible
28 Dec 7.0 05:22:53 10° NNE 05:27:42 37° E 05:32:29 10° SSE visible
28 Dec 6.4 07:03:53 10° NNW 07:08:16 28° W 07:12:37 10° SW visible
28 Dec 5.4 18:21:08 10° S 18:26:18 73° E 18:31:30 10° N visible
28 Dec 8.3 20:04:47 10° WSW 20:07:38 15° WNW 20:10:29 10° NW visible
29 Dec 7.8 04:50:00 10° NNE 04:53:57 21° ENE 04:57:52 10° SE visible
29 Dec 5.7 06:29:57 10° NNW 06:34:58 49° W 06:39:57 10° SSW visible
29 Dec 5.9 17:48:05 10° SSE 17:52:55 41° E 17:57:46 10° NNE visible
29 Dec 7.6 19:29:31 10° SW 19:33:47 25° WNW 19:38:05 10° NNW visible
